Weather in Alushta

Russia / Republic of Crimea     44°40′35″N   34°24′36″E
temp.,
°C
wind,
m/s
gust,
m/s
humid.,
%
clouds,
%
prec.,
mm/h
press.,
hPa
HPBL,
m
28 february, sun
sun2800:00+6nw5687100 0.5 1018194
03:00+4nnw6786100 0.9 1019453
06:00+3nw6880100 0.1 1020787
09:00+3nw688375 0.3 1021645
12:00+3nw467849 0.3 1022686
15:00+3wnw458165 1.2 1022538
18:00+3nw358366 0.6 1022619
21:00+2nw348264 0.9 1024446
1 march, mon
mon100:00+2nw348158 0.3 1024392
03:00+1nw338260 0.4 1024357
06:000nw227783 0.0 1025171
09:00+2nw127575 0.0 1026315
12:00+2se329092 0.2 1027314
15:00+2se229496 0.8 1027205
18:00+1e229698 0.9 1027223
21:00+1n228199 1.3 1029200
2 march, tue
tue200:00+1nnw338168 0.0 1030202
03:000nnw347944 0.1 1030240
06:00−1nnw33770 0.0 1030213
09:000nnw33702 0.0 1030300
12:00+3ssw12595 0.0 1030625
15:00+4ssw33698 0.0 1029660
18:00+3nw447416 0.0 1027417
21:00+1nw678251 0.0 1027222
3 march, wed
wed300:00+2wnw568313 0.0 1026227
03:00+3wnw348331 0.0 1025376
06:00+4wnw458684 0.0 1025308
09:00+4wnw458361 0.0 1025282
12:00+6nw357422 0.0 1026498
15:00+6wnw247636 0.1 1026505
18:00+5wnw248269 0.2 1026251
21:00+4nw228169 0.3 102858
4 march, thu
thu400:00+3nnw337514 0.0 102888
03:00+3nw227327 0.1 1028151
06:00+3s117689 0.1 1027290
09:00+4se237792 0.1 1027453
12:00+4sse3480100 0.0 1027546
15:00+5sse238694 0.1 1025407
18:00+4s118746 0.1 1024151
21:00+3ssw238534 0.1 1023252